Regional Weather Roundup
Issued by NWS Sioux Falls, SD

Home | Current Version | Previous Version | Text Only | Print | Product List | Glossary Off
Versions: 1 2 3 4 5 6 7 8 9 10 11 12 13 14 15 16 17 18 19 20 21 22 23 24 25 26 27 28 29 30 31 32 33 34 35 36 37 38 39 40 41 42 43 44 45 46 47 48 49 50

000
ASUS43 KFSD 122302
RWRFSD

WEATHER ROUNDUP FOR SE SOUTH DAKOTA/SW MINNESOTA/NW IOWA
NATIONAL WEATHER SERVICE SIOUX FALLS SD
500 PM CST TUE DEC 12 2017

NOTE: "FAIR" INDICATES FEW OR NO CLOUDS BELOW 12,000 FEET WITH NO
SIGNIFICANT WEATHER AND OR OBSTRUCTIONS TO VISIBILITY.


SDZ038>040-050-052>070-130000-
SOUTHEAST SOUTH DAKOTA

CITY           SKY/WX    TMP DP  RH WIND       PRES   REMARKS
BROOKINGS      CLEAR     36  28  73 SW8       29.85F
CHAMBERLAIN    CLEAR     48  22  36 W5        29.87F
HURON          CLEAR     43  25  49 SW10      29.83F
MADISON        FAIR      36  32  87 SW9       29.86F
MITCHELL       CLEAR     45  29  53 SW12      29.88F
SIOUX FALLS    PTCLDY    39  30  70 SW6       29.90F
WINNER         FAIR      53  20  27 W7        29.90F
YANKTON        CLEAR     42  27  55 SW10      29.91F
$$

MNZ071-072-080-081-089-090-097-098-130000-
SOUTHWEST MINNESOTA

CITY           SKY/WX    TMP DP  RH WIND       PRES   REMARKS
FAIRMONT       MOCLDY    33  26  75 SW9       29.92F WCI  25
JACKSON        CLEAR     32  27  80 MISG      29.91F
LUVERNE        CLEAR     34  27  75 SW9       29.91F WCI  26
MARSHALL       PTCLDY    38  28  67 SW15      29.84F
MONTEVIDEO     PTCLDY    37  28  70 W5        29.83F
PIPESTONE      CLEAR     34  28  80 SW12      29.86F WCI  25
REDWOOD FALLS  CLEAR     36  27  69 SW12      29.85F
WINDOM         CLEAR     34  19  55 S10       29.88F WCI  26
WORTHINGTON    CLEAR     34  27  75 SW14      29.89F WCI  25
$$

IAZ001>003-012>014-020>022-031-032-NEZ013-014-SDZ071-130000-
NORTHWEST IOWA

CITY           SKY/WX    TMP DP  RH WIND       PRES   REMARKS
CHEROKEE       CLEAR     32  24  72 S7        29.96F WCI  26
DENISON        CLEAR     34  23  64 SW7       30.01F WCI  28
ESTHERVILLE    PTCLDY    33  26  75 SW13      29.92F WCI  24
LE MARS        CLEAR     36  27  69 S12       29.93F
ORANGE CITY    CLEAR     36  28  75 S6        29.93F
SHELDON        CLEAR     36  28  75 S8        29.92F
SIOUX CITY     CLEAR     39  26  59 SW9       29.96F
SPENCER        CLEAR     34  24  67 SW9       29.94F WCI  27
STORM LAKE     CLEAR     32  23  69 SW14      29.95F WCI  22
$$

ABBREVIATIONS USED IN REMARKS
   TC - TEMPERATURE IN CELSIUS
  WCI - WIND CHILL INDEX
   HX - HEAT INDEX
  VSB - VISIBILITY





USA.gov is the U.S. government's official web portal to all federal, state and local government web resources and services.